Flag for Norway Weather past 2 weeks in Drammen, Norway

Now
59 °F

Passing clouds.


Feels Like: 54 °F
Forecast: 51 / 61 °F
Wind: 29 mph from Southeast

Location: Oslo / Fornebu

Current Time: Aug 30, 2014 at 2:13:52 AM

Latest Report: Aug 30, 2014 at 1:20 AM


Visibility: N/A

Pressure: 29.77 "Hg

Humidity: 88%

Dew point: 55 °F

Location of DrammenLocation

Historic Weather in Drammen — Graph

°F

Drammen temperature yesterday

Maximum temperature yesterday: 61 °F (at 4:20 PM)
Minimum temperature yesterday: 57 °F (at 12:20 AM)
Average temperature yesterday: 58 °F

Past Weeks' High & Low Weather Summary

 TemperatureHumidityPressure
High61 °F (Aug 28, 12:50 PM)100% (Aug 16, 4:50 PM)30.07 "Hg (Aug 16, 4:50 PM)
Low52 °F (Aug 16, 3:50 AM)59% (Aug 15, 9:50 AM)29.33 "Hg (Aug 17, 3:50 AM)
Average54 °F79%29.73 "Hg
* Reported Aug 15 12:20 AM — Aug 30 12:50 AM, Drammen, Weather by CustomWeather, © 2014

Note: Actual official high and low records may vary slightly from our data, if they occured in-between our weather recording intervals... More about our weather records

Advertising

Drammen weather history for previous 24 hours

 ConditionsComfort  
Time TempWeatherWind HumidityBarometerVisibility
12:50 AM
Aug 30
59 °FPartly cloudy.N/A88%29.77 "HgN/A
12:20 AM59 °FCool.N/A82%29.77 "HgN/A
11:50 PM
Aug 29
59 °FCool.N/A82%29.77 "HgN/A
11:20 PM59 °FCool.N/A82%29.80 "HgN/A
10:50 PM59 °FCool.N/A88%29.77 "HgN/A
8:50 PM59 °FCool.35 mph88%29.77 "HgN/A
8:20 PM59 °FPartly sunny.31 mph82%29.77 "HgN/A
7:50 PM57 °FPartly sunny.30 mph88%29.77 "HgN/A
7:20 PM59 °FPartly sunny.28 mph82%29.77 "HgN/A
6:50 PM59 °FPartly sunny.29 mph82%29.77 "HgN/A
6:20 PM59 °FPartly sunny.31 mph82%29.77 "HgN/A
5:50 PM59 °FBroken clouds.29 mph88%29.77 "HgN/A
5:20 PM59 °FPartly sunny.29 mph88%29.77 "HgN/A
4:50 PM61 °FOvercast.39 mph83%29.77 "HgN/A
4:20 PM61 °FOvercast.38 mph83%29.77 "HgN/A
3:50 PM59 °FOvercast.35 mph88%29.77 "HgN/A
3:20 PM59 °FLight rain. Partly sunny.36 mph88%29.77 "HgN/A
2:50 PM59 °FOvercast.33 mph88%29.77 "HgN/A
2:20 PM59 °FOvercast.35 mph82%29.77 "HgN/A
1:50 PM57 °FOvercast.35 mph88%29.77 "HgN/A
1:20 PM59 °FOvercast.32 mph82%29.77 "HgN/A
12:50 PM57 °FOvercast.33 mph88%29.77 "HgN/A
12:20 PMN/AOvercast.N/AN/AN/AN/A
11:50 AM57 °FPartly sunny.39 mph88%29.77 "HgN/A
11:20 AM59 °FSprinkles. Cloudy.33 mph88%29.77 "Hg4 mi
10:50 AM59 °FPartly sunny.36 mph82%29.77 "HgN/A
10:20 AM59 °FPartly sunny.33 mph82%29.77 "HgN/A
9:50 AM59 °FPartly sunny.32 mph82%29.77 "HgN/A
9:20 AM59 °FPartly sunny.32 mph82%29.77 "HgN/A
8:50 AM59 °FPassing clouds.31 mph82%29.77 "HgN/A
8:20 AM59 °FPassing clouds.33 mph82%29.77 "HgN/A
7:50 AM57 °FPartly sunny.32 mph88%29.77 "HgN/A
7:20 AM57 °FCool.33 mph88%29.77 "HgN/A
6:50 AM57 °FCool.N/A88%29.80 "HgN/A
6:20 AM57 °FCool.N/A88%29.80 "HgN/A
5:50 AM57 °FCool.31 mph88%29.80 "HgN/A
5:20 AM57 °FCool.29 mph88%29.80 "HgN/A
4:50 AM57 °FCool.28 mph88%29.83 "HgN/A
4:20 AM57 °FCool.25 mph88%29.83 "HgN/A
3:50 AM57 °FCool.25 mph88%29.83 "HgN/A
3:20 AM57 °FCool.25 mph88%29.83 "HgN/A
2:50 AM57 °FCool.25 mph88%29.86 "HgN/A
2:20 AM57 °FCool.24 mph88%29.86 "HgN/A
Weather by CustomWeather, © 2014

See weather overviewHow to use our weather pages